Regional Weather Roundup
Issued by NWS Upton, NY

Current Version | Previous Version | Text Only | Print | Product List | Glossary Off
Versions: 1 2 3 4 5 6 7 8 9 10 11 12 13 14 15 16 17 18 19 20 21 22 23 24 25 26 27
000 ASUS41 KOKX 180409 RWROKX Regional Weather Roundup National Weather Service New York NY 1100 PM EST SUN DEC 17 2017 Note: "FAIR" indicates few or no clouds below 12,000 feet with no significant weather and/or obstructions to visibility. NYZ071-072-176-178-NJZ106-104-180500- New York City Metro Area CITY SKY/WX TMP DP RH WIND PRES REMARKS Central Park CLOUDY 36 25 64 CALM 30.23F Bronx Bot Gard N/A 34 23 64 E6 30.24S WCI 29 Bronx Lehman C N/A 34 25 69 E5 N/A WCI 30 LaGuardia Arpt CLOUDY 35 24 64 E8 30.22F WCI 29 Queens College N/A 34 25 69 E2 N/A Kennedy Intl CLOUDY 33 25 72 E6 30.23F WCI 28 Breezy Point N/A 34 N/A N/A NE6 N/A WCI 29 Brooklyn Coll N/A 36 27 69 E5 N/A WCI 32 Staten Island N/A 36 28 75 E3 N/A Newark/Liberty CLOUDY 37 27 67 E5 30.22F WCI 33 Teterboro CLOUDY 36 26 67 NE3 30.21F $$ NYZ177-179-078>081-180500- Long Island New York CITY SKY/WX TMP DP RH WIND PRES REMARKS Jones Beach N/A 34 N/A N/A E9 N/A WCI 26 Wantagh N/A 32 25 74 E3 N/A Matinecock Pt N/A 34 N/A N/A E6 N/A WCI 29 Farmingdale CLOUDY 32 24 72 E5 30.22F WCI 27 MacArthur/ISP CLOUDY 32 24 72 E3 30.22F Shirley CLOUDY 32 23 69 VRB3 30.24F Mt Sinai Harb N/A N/A N/A N/A S5 N/A Westhampton CLOUDY 31 21 66 E3 30.26F East Hampton FAIR 28 22 77 CALM 30.25S Southold N/A 32 19 59 E1 N/A Montauk N/A 34 11 38 NE3 30.26F $$ NYZ052-065-067-180500- Hudson Valley CITY SKY/WX TMP DP RH WIND PRES REMARKS White Plains CLOUDY 30 18 60 E5 30.20F WCI 25 Larchmont Harb N/A 34 N/A N/A N6 N/A WCI 29 Croton On Huds N/A 32 N/A N/A NE1 N/A Somers N/A 28 19 69 NE1 N/A Brewster N/A 27 18 69 NW1 N/A Newburgh CLOUDY 27 19 74 CALM 30.23S Montgomery CLOUDY 26 17 68 N7 30.21S WCI 18 Otisville N/A 27 18 69 NE1 N/A Warwick N/A 28 23 80 NW1 N/A Suffern N/A 30 23 74 NE1 N/A Poughkeepsie CLOUDY 27 16 63 N3 30.23F Albany CLOUDY 19 9 65 NE5 30.24F WCI 12 $$ NJZ001-105-106-008-010-013-015-019>022-104-180500- New Jersey CITY SKY/WX TMP DP RH WIND PRES REMARKS Newark/Liberty CLOUDY 37 27 67 E5 30.22F WCI 33 Teterboro CLOUDY 36 26 67 NE3 30.21F Caldwell CLOUDY 33 25 72 NE3 30.22F Somerville CLOUDY 32 29 88 CALM 30.19F Linden CLOUDY 36 27 70 CALM 30.22F Perth Amboy N/A 37 N/A N/A E9 N/A WCI 31 Sussex CLOUDY 29 20 69 NE6 30.20F WCI 23 Andover NOT AVBL Trenton CLOUDY 36 31 82 E5 30.19F WCI 32 Millville CLOUDY 39 36 89 CALM 30.18F Atlantic City CLOUDY 40 36 86 N6 30.19F Wrightstown CLOUDY 34 32 90 CALM 30.17F Toms River CLOUDY 34 32 92 CALM 30.20F Belmar CLOUDY 41 37 86 E7 30.21F $$ PAZ047>061-062-071-180500- Eastern Pennsylvania CITY SKY/WX TMP DP RH WIND PRES REMARKS Philadelphia CLOUDY 38 31 76 NE5 30.20F WCI 34 Allentown CLOUDY 34 26 72 NE5 30.18F WCI 30 Scranton CLOUDY 31 25 78 CALM 30.13F $$ CTZ002-004>006-009-010-012-RIZ004-006-007-MAZ004-011-015-180500- Southern New England In CT CITY SKY/WX TMP DP RH WIND PRES REMARKS Bradley Intl CLOUDY 25 12 58 CALM 30.25S Hartford CLOUDY 28 14 55 CALM 30.26S Danbury CLOUDY 29 15 56 CALM 30.23F Wtrbury/Oxford CLOUDY 26 14 60 NE3 30.21F Norwalk Harbor N/A N/A N/A N/A NE8 N/A Bridgeport CLOUDY 32 15 49 NE5 30.24F WCI 27 Meriden CLOUDY 28 20 71 CALM 30.25S New Haven CLOUDY 31 12 45 CALM 30.24F Chester FAIR 28 10 47 CALM 30.23S Groton CLOUDY 30 14 51 NE3 30.25F Willimantic CLOUDY 24 16 71 CALM 30.26S In RI CITY SKY/WX TMP DP RH WIND PRES REMARKS Providence PTCLDY 26 12 55 CALM 30.27R Block Island CLOUDY 30 14 51 CALM 30.26F Westerly CLOUDY 28 17 63 CALM 30.26F In MA CITY SKY/WX TMP DP RH WIND PRES REMARKS Boston CLOUDY 24 6 46 N6 30.26F WCI 17 Worcester CLOUDY 20 4 50 CALM 30.19F Westfield CLOUDY 22 11 62 N3 30.24F Provincetown CLOUDY 28 13 53 N9 30.25F WCI 19 Nantucket CLOUDY 28 13 53 N3 30.25F $$ ANZ330-335-338-340-345-350-353-355-180500- Coastal Marine Observations STATION/POSITION TIME SKY/WX TEMP WIND PRES VSBY WAVE AIR SEA DIR/SP/G HT/PER (UTC) (F) (DEG/KT/KT) (MB) (MI) (FT/S) NY Harb Entrance 0350 41 51 90/ 10/ 14 1022.9 2/ 7 20 S Fire Island 0250 40 50 80/ 8/ 12 1024.1 2/ 6 15 E Barnegat Li 0330 49 N/A 2/ 5 Hudson Canyon 0350 47 54 90/ 12/ 14 1022.9 2/ 6 Kings Point 0342 33 42 130/ 2/ 4 1024.4 Execution Rocks 0330 36 110/ 8/ 10 N/A Western LI Sound NOT AVBL Central LI Sound 0300 34 50/ 6/ 8 N/A 0 Robbins Reef 0342 37 100/ 8/ 9 1023.9 $$ >>>>>>>>>>>>>>>>>>>>>>>>>>>> KEY <<<<<<<<<<<<<<<<<<<<<<<<<<< > < > SKY/WX - Sky Condition/Present Weather < > TMP - Temperature in Fahrenheit < > DP - Dew Point in Fahrenheit < > RH - Relative Humidity in Percent < > WIND - Direction (from) and Speed in MPH < > PRES - Mean Sea Level Pressure (inches of Hg) < > WCI - Wind Chill Index < > VSB - Visibility in Miles < > HX - Heat Index < > TC - Temperature in Celsius < > VRB - Varibale Wind Direction < > < >>>>>>>>>>>>>>>>>>>>>>>>>>>> KEY <<<<<<<<<<<<<<<<<<<<<<<<<<<

USA.gov is the U.S. government's official web portal to all federal, state and local government web resources and services.